Location: Ústí nad Labem
(50.6611°N, 14.0531°E)
Time: 18:59:15
(UTC+02:00)

S-56A Canister/Altair - Pass Details

Date: 07 May 2025
Orbit: 633 x 2485 km, 38.9° (Epoch: 12 May)

Event Time Altitude Azimuth Distance (km) Brightness Sun altitude
Rises 21:19:01 0° 251° (WSW) 2,967 11.1 -6.8°
Reaches altitude 10° 21:21:37 10° 235° (SW) 2,145 10.1 -7.1°
Maximum altitude 21:25:18 22° 185° (S) 1,681 9.0 -7.6°
Drops below altitude 10° 21:29:46 10° 137° (SE) 2,661 9.6 -8.1°
Enters shadow 21:29:55 10° 136° (SE) 2,709 9.6 -8.1°
